[[{"header":{"parameterUnit":"m.s-1","parameterCategory":1,"la1":30.2991,"la2":30.254,"lo1":-89.0895,"lo2":-89.0444,"dy":0.0017,"dx":0.0017,"nx":28,"ny":28,"refTime":"2025-11-14T09:00:00:Z","depth":0,"parameterNumber":2,"parameterNumberName":"U-component_of_WINDS"},"data":[0,0,0,0,0,0,0,0,0,0,0,0,0,0,0,0,0,0,0,0,0,0,0,0,0,0,0,0,0,0,0,0,0,0,0,0,0,0,0,0,0,0,0,0,0,0,0,0,0,0,0,0,0,0,0,0,0,0,-0.1419,-0.1418,0,-0.1392,-0.1392,-0.1391,-0.1359,-0.1358,-0.1358,-0.1357,-0.133,-0.133,-0.133,0,0,0,0,0,0,0,0,0,0,0,0,0,-0.1441,-0.1441,-0.1419,-0.1418,-0.1418,-0.1392,-0.1392,-0.1391,-0.1359,-0.1358,-0.1358,-0.1357,-0.133,-0.133,-0.133,0,0,0,0,0,0,0,0,0,0,0,0,0,-0.1425,-0.1441,-0.1419,-0.1399,-0.1397,-0.1392,-0.1392,-0.1391,-0.1359,-0.1358,-0.1358,-0.1357,-0.133,-0.133,-0.133,-0.1342,0,0,-0.1329,-0.1328,0,0,0,0,0,0,0,0,-0.1426,-0.1424,-0.1402,-0.14,-0.1398,-0.1378,-0.1389,-0.1375,-0.1359,-0.1373,-0.1357,-0.1357,-0.1347,-0.1345,-0.1342,-0.1341,-0.134,-0.1328,-0.1328,-0.1328,-0.1328,0,0,0,0,0,0,0,-0.1427,-0.1425,-0.1408,-0.1402,-0.1399,-0.1391,-0.1388,-0.1387,-0.1365,-0.1372,-0.137,-0.1367,-0.1345,-0.1342,-0.1341,-0.134,-0.1328,-0.1328,-0.1328,-0.1328,-0.1346,-0.1347,0,0,0,0,0,0,-0.1431,-0.1426,-0.1409,-0.1407,-0.141,-0.1391,-0.1388,-0.1385,-0.1365,-0.1361,-0.1368,-0.1366,-0.1343,-0.1341,-0.134,-0.1352,-0.1328,-0.1328,-0.1327,-0.1346,-0.1346,-0.1347,0,0,0,0,0,0,-0.1432,-0.143,-0.141,-0.1416,-0.1413,-0.1392,-0.1389,-0.1385,-0.1381,-0.1361,-0.1357,-0.1368,-0.1342,-0.134,-0.1341,-0.135,-0.1328,-0.1327,-0.1345,-0.1346,-0.1347,-0.1377,0,0,0,0,0,0,-0.1432,-0.143,-0.1435,-0.1416,-0.1413,-0.1413,-0.139,-0.1385,-0.1381,-0.1378,-0.1361,-0.1357,-0.1342,-0.1342,-0.1341,-0.1349,-0.1327,-0.1344,-0.1345,-0.1346,-0.1375,-0.1379,-0.1382,0,0,0,0,0,-0.1433,-0.1445,-0.1435,-0.1433,-0.1418,-0.1413,-0.1411,-0.1393,-0.1382,-0.1386,-0.1373,-0.1358,-0.135,-0.1343,-0.1341,-0.1349,-0.1343,-0.1345,-0.1346,-0.1373,-0.1378,-0.1382,0,0,0,0,0,0,-0.1465,-0.1442,-0.1431,-0.1437,-0.1427,-0.1408,-0.1413,-0.1399,-0.1392,-0.1389,-0.1368,-0.1364,-0.1367,-0.1359,-0.1351,-0.136,-0.1344,-0.1346,-0.1365,-0.1369,-0.1373,-0.1374,-0.1327,0,0,0,0,0,-0.1473,-0.1471,-0.1451,-0.1458,-0.1454,-0.1434,-0.1431,-0.1418,-0.1407,-0.1403,-0.139,-0.1379,-0.1374,-0.1372,-0.1366,-0.1374,-0.1369,-0.1379,-0.1382,-0.1385,-0.1386,-0.1388,-0.1392,-0.1353,-0.1352,-0.1352,0,0,-0.1489,-0.1476,-0.1476,-0.1464,-0.1455,-0.1453,-0.1431,-0.143,-0.1428,-0.1403,-0.1402,-0.1393,-0.138,-0.1384,-0.1385,-0.1377,-0.1396,-0.1387,-0.139,-0.1389,-0.139,-0.1394,-0.1397,-0.1354,-0.1353,-0.1353,0,0,-0.1517,-0.1507,-0.1511,-0.1502,-0.1489,-0.1476,-0.1477,-0.1459,-0.1451,-0.1451,-0.1431,-0.1429,-0.1421,-0.1412,-0.1407,-0.143,-0.1415,-0.1429,-0.1447,-0.1449,-0.1452,-0.1455,-0.1461,-0.1464,-0.143,-0.1431,-0.1431,0,-0.1538,-0.1534,-0.1515,-0.1515,-0.151,-0.1487,-0.149,-0.1483,-0.1468,-0.1464,-0.1456,-0.1444,-0.1434,-0.1435,-0.1441,-0.1438,-0.1437,-0.143,-0.1453,-0.1456,-0.1458,-0.1464,-0.1467,-0.1432,-0.1432,-0.1432,-0.1432,0,-0.156,-0.1558,-0.1563,-0.1549,-0.1544,-0.1546,-0.1527,-0.1524,-0.1512,-0.1499,-0.1499,-0.1486,-0.1476,-0.1476,-0.1464,-0.1475,-0.1469,-0.1457,-0.1441,-0.1463,-0.1469,-0.1471,-0.1435,-0.1434,-0.1433,-0.1433,0,0,-0.1607,-0.1582,-0.1584,-0.1576,-0.1559,-0.1557,-0.1557,-0.1548,-0.1545,-0.1536,-0.1535,-0.1529,-0.1517,-0.1511,-0.1498,-0.15,-0.1517,-0.1487,-0.1486,-0.1491,-0.1526,-0.1534,-0.1537,-0.1507,-0.1508,-0.1508,-0.1526,0,-0.163,-0.1629,-0.1612,-0.1615,-0.1612,-0.159,-0.159,-0.158,-0.1568,-0.1563,-0.1551,-0.1546,-0.1531,-0.1527,-0.1528,-0.1515,-0.1523,-0.1513,-0.1505,-0.1505,-0.1507,-0.154,-0.1549,-0.1567,-0.1528,-0.1529,-0.1529,0,-0.1657,-0.1648,-0.1651,-0.1633,-0.1631,-0.1632,-0.1621,-0.1617,-0.1604,-0.1596,-0.1588,-0.1573,-0.1571,-0.1557,-0.1554,-0.1547,-0.1543,-0.1536,-0.1536,-0.1533,-0.1517,-0.1537,-0.1572,-0.1575,-0.1533,-0.1532,-0.1532,0,-0.1688,-0.1678,-0.1678,-0.1673,-0.1652,-0.1652,-0.1644,-0.163,-0.1625,-0.1616,-0.1612,-0.1603,-0.1598,-0.1591,-0.1573,-0.1565,-0.1571,-0.1556,-0.1563,-0.1564,-0.1565,-0.1564,-0.1598,-0.1565,-0.1565,-0.1564,-0.1564,0,-0.1715,-0.1717,-0.1691,-0.1691,-0.1693,-0.1673,-0.1676,-0.1665,-0.1653,-0.165,-0.1631,-0.1628,-0.1606,-0.1601,-0.1587,-0.1585,-0.1584,-0.1576,-0.1572,-0.1577,-0.1577,-0.1573,-0.157,-0.1565,-0.1565,-0.1565,-0.1565,0,-0.175,-0.1733,-0.1731,-0.1711,-0.1706,-0.1708,-0.1691,-0.169,-0.1677,-0.1674,-0.1672,-0.1652,-0.1644,-0.1626,-0.1615,-0.1605,-0.1607,-0.1601,-0.1611,-0.1608,-0.1616,-0.1615,-0.1647,-0.1649,-0.1615,-0.1616,-0.1616,0,-0.1767,-0.1768,-0.1748,-0.1745,-0.1737,-0.1732,-0.1727,-0.1707,-0.1702,-0.1687,-0.1687,-0.1679,-0.1671,-0.166,-0.1644,-0.1634,-0.1627,-0.1639,-0.1625,-0.163,-0.1625,-0.1625,-0.1624,-0.1641,-0.1642,-0.1642,-0.1642,0,-0.1799,-0.179,-0.1784,-0.1774,-0.1768,-0.1759,-0.1749,-0.1747,-0.1725,-0.1721,-0.1713,-0.1707,-0.1694,-0.1685,-0.1673,-0.1664,-0.1649,-0.1647,-0.1648,-0.1652,-0.1657,-0.1653,-0.1617,-0.1646,-0.1646,-0.1645,-0.1645,-0.1645,-0.1825,-0.1824,-0.181,-0.1802,-0.1793,-0.1784,-0.1781,-0.1768,-0.1761,-0.175,-0.1739,-0.1732,-0.1718,-0.17,-0.1691,-0.1685,-0.1678,-0.1679,-0.168,-0.168,-0.1681,-0.1659,-0.1683,-0.1683,-0.1683,-0.1683,-0.1683,0,-0.1854,-0.1844,-0.1837,-0.1824,-0.1818,-0.1805,-0.1793,-0.1789,-0.1783,-0.1771,-0.1764,-0.1754,-0.1745,-0.1728,-0.1718,-0.1716,-0.1709,-0.1714,-0.1713,-0.1711,-0.1689,-0.1689,-0.1719,-0.1719,-0.1719,-0.1719,-0.1719,-0.1719,-0.1869,-0.1867,-0.1857,-0.1849,-0.1839,-0.1832,-0.1826,-0.1817,-0.1808,-0.1798,-0.179,-0.1779,-0.1765,-0.1753,-0.1744,-0.1739,-0.1736,-0.1743,-0.1735,-0.1716,-0.1712,-0.1709,-0.1708,-0.1742,-0.1742,-0.1757,-0.1757,-0.1757]},{"header":{"parameterUnit":"m.s-1","parameterCategory":1,"la1":30.2991,"la2":30.254,"lo1":-89.0895,"lo2":-89.0444,"dy":0.0017,"dx":0.0017,"nx":28,"ny":28,"refTime":"2025-11-14T09:00:00:Z","depth":0,"parameterNumber":3,"parameterNumberName":"V-component_of_WINDS"},"data":[0,0,0,0,0,0,0,0,0,0,0,0,0,0,0,0,0,0,0,0,0,0,0,0,0,0,0,0,0,0,0,0,0,0,0,0,0,0,0,0,0,0,0,0,0,0,0,0,0,0,0,0,0,0,0,0,0,0,2.4785,2.4785,0,2.4778,2.4778,2.4778,2.4811,2.4812,2.4813,2.4814,2.4802,2.4801,2.48,0,0,0,0,0,0,0,0,0,0,0,0,0,2.482,2.4819,2.4785,2.4785,2.4784,2.4778,2.4778,2.4778,2.4811,2.4812,2.4813,2.4815,2.4803,2.4801,2.48,0,0,0,0,0,0,0,0,0,0,0,0,0,2.4808,2.4819,2.4785,2.48,2.4802,2.4779,2.4778,2.4778,2.4811,2.4812,2.4814,2.4815,2.4803,2.4801,2.4799,2.4759,0,0,2.4794,2.4793,0,0,0,0,0,0,0,0,2.4809,2.4807,2.4798,2.4799,2.4801,2.4797,2.4787,2.4772,2.4811,2.4807,2.4814,2.4816,2.4799,2.4798,2.4793,2.4759,2.4758,2.4794,2.4793,2.4792,2.4791,0,0,0,0,0,0,0,2.481,2.4807,2.4782,2.4798,2.4799,2.4806,2.4806,2.4784,2.4795,2.4808,2.481,2.4809,2.48,2.4795,2.4793,2.4758,2.4794,2.4792,2.4791,2.479,2.469,2.4688,0,0,0,0,0,0,2.4809,2.4808,2.4782,2.4782,2.4809,2.4804,2.4804,2.4797,2.4795,2.4796,2.4808,2.4811,2.4797,2.4795,2.4793,2.4745,2.4792,2.479,2.4789,2.4691,2.469,2.4688,0,0,0,0,0,0,2.481,2.4806,2.4782,2.4795,2.4793,2.4802,2.4794,2.4796,2.4791,2.4796,2.4797,2.4801,2.4798,2.4795,2.4768,2.4745,2.4789,2.4788,2.4693,2.4691,2.4689,2.465,0,0,0,0,0,0,2.4811,2.4807,2.4792,2.4795,2.4792,2.4759,2.4792,2.4795,2.4788,2.4792,2.4789,2.479,2.4799,2.477,2.4766,2.4743,2.4786,2.4695,2.4692,2.4689,2.4653,2.4646,2.4641,0,0,0,0,0,2.4812,2.478,2.4791,2.4788,2.4775,2.4757,2.4756,2.4768,2.4786,2.4771,2.4775,2.479,2.4749,2.4767,2.4762,2.4739,2.4697,2.4693,2.469,2.4656,2.4648,2.4641,0,0,0,0,0,0,2.4773,2.4781,2.4793,2.4762,2.4759,2.4763,2.4745,2.4759,2.4749,2.4753,2.4767,2.4766,2.4736,2.4735,2.4755,2.47,2.4726,2.4721,2.4702,2.4694,2.4688,2.4688,2.4785,0,0,0,0,0,2.4761,2.4748,2.4755,2.4727,2.4725,2.4735,2.4728,2.4738,2.4735,2.4733,2.4734,2.4728,2.4714,2.4704,2.4691,2.4654,2.4653,2.4635,2.4629,2.4624,2.4619,2.4599,2.4591,2.4676,2.4676,2.4676,0,0,2.4735,2.4738,2.4729,2.4719,2.4718,2.4702,2.4734,2.4716,2.4704,2.4729,2.4704,2.4704,2.4699,2.4666,2.4652,2.4665,2.4596,2.462,2.4616,2.4614,2.4595,2.4586,2.4579,2.4674,2.4674,2.4675,0,0,2.4681,2.4683,2.4659,2.4658,2.4657,2.4664,2.4658,2.466,2.4662,2.4637,2.4656,2.4642,2.4617,2.4612,2.4607,2.4552,2.4566,2.4547,2.4514,2.4494,2.4487,2.4482,2.4461,2.4454,2.4543,2.4543,2.4543,0,2.4649,2.4628,2.4645,2.4626,2.4621,2.4646,2.4621,2.4619,2.4612,2.4607,2.4622,2.4592,2.4591,2.4557,2.4544,2.4539,2.4532,2.4547,2.4488,2.4482,2.4476,2.4457,2.4449,2.4541,2.4541,2.4541,2.4541,0,2.4588,2.4573,2.4555,2.455,2.4543,2.4521,2.4533,2.4524,2.4535,2.454,2.4514,2.4513,2.45,2.4493,2.4503,2.4461,2.4469,2.4485,2.4511,2.4466,2.4448,2.444,2.4537,2.4538,2.4539,2.4539,0,0,2.4507,2.4514,2.4506,2.4505,2.4506,2.4493,2.4473,2.4463,2.4454,2.4449,2.443,2.441,2.4426,2.4419,2.4429,2.4411,2.4367,2.443,2.443,2.4418,2.432,2.4306,2.4298,2.4377,2.4376,2.4375,2.432,0,2.4454,2.442,2.4435,2.4399,2.4385,2.441,2.4391,2.4389,2.4394,2.4381,2.4385,2.437,2.4393,2.4389,2.4373,2.4376,2.4347,2.438,2.4359,2.4358,2.4358,2.4288,2.4274,2.4222,2.4313,2.4312,2.4311,0,2.4386,2.438,2.4344,2.4348,2.4342,2.4326,2.4318,2.4306,2.4304,2.4308,2.4302,2.4316,2.4294,2.4321,2.4291,2.4313,2.4305,2.4305,2.4304,2.4301,2.4331,2.4282,2.4206,2.4198,2.43,2.4301,2.4302,0,2.4329,2.4313,2.4289,2.4287,2.4291,2.4278,2.4279,2.4279,2.4272,2.4264,2.426,2.4249,2.4243,2.4233,2.4243,2.4262,2.4211,2.4239,2.4213,2.4212,2.4199,2.42,2.4119,2.4196,2.4197,2.4197,2.4197,0,2.4267,2.4243,2.4264,2.4248,2.4222,2.424,2.4213,2.4216,2.4216,2.42,2.422,2.4205,2.422,2.4206,2.4214,2.4187,2.4184,2.4186,2.4188,2.4184,2.4183,2.4178,2.4181,2.4195,2.4195,2.4196,2.4196,0,2.4199,2.4212,2.4187,2.4194,2.4195,2.4175,2.418,2.4166,2.4173,2.4153,2.415,2.4159,2.4144,2.4154,2.4137,2.4143,2.4108,2.4115,2.4109,2.411,2.4083,2.4085,2.3995,2.3984,2.4069,2.4068,2.4068,0,2.4157,2.414,2.4146,2.4138,2.4138,2.4125,2.4119,2.4135,2.4127,2.4124,2.411,2.4097,2.4087,2.4061,2.4066,2.4054,2.406,2.403,2.4058,2.4054,2.4058,2.4059,2.4057,2.4023,2.4022,2.4021,2.4021,0,2.4082,2.409,2.4081,2.4074,2.4066,2.4061,2.4057,2.405,2.4066,2.4056,2.4042,2.4035,2.402,2.4006,2.3996,2.3995,2.401,2.4012,2.4005,2.3999,2.3996,2.3997,2.4092,2.4013,2.4014,2.4015,2.4015,2.4015,2.4025,2.4011,2.4013,2.4002,2.4002,2.3998,2.3985,2.3991,2.3981,2.3971,2.3981,2.3963,2.3961,2.395,2.3947,2.3933,2.3945,2.3935,2.3932,2.3929,2.3925,2.4,2.3931,2.3931,2.3932,2.3932,2.3932,0,2.395,2.3954,2.3944,2.3939,2.393,2.3948,2.3945,2.3936,2.3921,2.3919,2.391,2.3893,2.3881,2.3885,2.3873,2.3861,2.3867,2.3857,2.3857,2.3856,2.3915,2.3922,2.3852,2.3852,2.3852,2.3852,2.3852,2.3852,2.391,2.3887,2.3895,2.3872,2.3875,2.3859,2.3856,2.3852,2.3851,2.3832,2.3823,2.3826,2.3826,2.3815,2.3804,2.3805,2.3799,2.3786,2.379,2.3844,2.3852,2.386,2.3866,2.3785,2.3785,2.3732,2.3732,2.3731]}]]